Kezdőlap
METAR-TAF:

METAR-TAF

Repülőterek :

Southwest Minnesota Regional Airport (Marshall/Ryan Field)

Marshall, Minnesota, Amerikai Egyesült Államok

földrajzi szélesség: 44-27N, földrajzi hosszúság: 095-49W, magasság: 359 m

Jelenlegi meteorológiai megfigyelések

A jelentés 58 perccel ezelõtt készült, 06:56 UTC
Északnyugati szél 8 kt
Hőmérséklet 16°C
Páratartalom 88%
Légköri nyomás 1011 hPa
Látótávolság: 16.1 km
Szakadozott felhőzet 6500 lábon
Borult 8000 lábon

METAR: KMML 260656Z AUTO 32008KT 10SM BKN065 OVC080 16/14 A2986 RMK AO2 SLP112 T01610144

Idő: 02:54 (07:54 UTC)


TAF: hiányzik

Meteorológiai megfigyelések és előrejelzések több, mint 4000 repülőtéren (METAR és TAF jelentéseket).

A térképen piros és sárga pontok jelzik az elérhető meteorológiai állomásokat.

Mozgassa az egeret a pont fölött, hogy megjelenjen az állomás neve.

Azután kattintson az időjárási megfigyelések és előrejelzések megtekintéséhez.

A térkép megváltoztatása: kattintson a fekete keresztel jelölt zöld gombra ráközelítéshez, a vonallal jelölt zöld gombra távolításhoz, vagy a zöld nyilakra a szomszédos térképek eléréséhez.


METAR-TAF: